TimeEDT,TemperatureF,Dew PointF,Humidity,Sea Level PressureIn,VisibilityMPH,Wind Direction,Wind SpeedMPH,Gust SpeedMPH,PrecipitationIn,Events,Conditions,WindDirDegrees,DateUTC
12:15 AM,55.4,53.6,94,29.99,10.0,Calm,Calm,-,N/A,,Clear,0,2013-04-02 04:15:00
12:35 AM,55.4,53.6,94,30.00,10.0,Calm,Calm,-,N/A,,Clear,0,2013-04-02 04:35:00
12:55 AM,55.4,51.8,88,30.00,10.0,Calm,Calm,-,N/A,,Clear,0,2013-04-02 04:55:00
1:15 AM,53.6,51.8,94,30.00,10.0,Calm,Calm,-,N/A,,Clear,0,2013-04-02 05:15:00
1:35 AM,51.8,51.8,100,30.01,10.0,Calm,Calm,-,N/A,,Clear,0,2013-04-02 05:35:00
1:55 AM,51.8,51.8,100,30.01,10.0,Calm,Calm,-,N/A,,Clear,0,2013-04-02 05:55:00
2:15 AM,51.8,51.8,100,30.01,10.0,Calm,Calm,-,N/A,,Clear,0,2013-04-02 06:15:00
2:55 AM,50.0,50.0,100,30.02,10.0,Calm,Calm,-,N/A,,Clear,0,2013-04-02 06:55:00
3:15 AM,50.0,50.0,100,30.02,10.0,Calm,Calm,-,N/A,,Clear,0,2013-04-02 07:15:00
3:35 AM,50.0,50.0,100,30.02,10.0,Calm,Calm,-,N/A,,Clear,0,2013-04-02 07:35:00
4:15 AM,50.0,50.0,100,30.03,10.0,Calm,Calm,-,N/A,,Clear,0,2013-04-02 08:15:00
4:35 AM,50.0,50.0,100,30.04,10.0,Calm,Calm,-,N/A,,Clear,0,2013-04-02 08:35:00
4:55 AM,50.0,50.0,100,30.04,10.0,Calm,Calm,-,N/A,,Clear,0,2013-04-02 08:55:00
5:15 AM,48.2,48.2,100,30.04,10.0,Calm,Calm,-,N/A,,Clear,0,2013-04-02 09:15:00
5:35 AM,48.2,48.2,100,30.05,10.0,Calm,Calm,-,N/A,,Clear,0,2013-04-02 09:35:00
5:55 AM,46.4,46.4,100,30.05,10.0,Calm,Calm,-,N/A,,Clear,0,2013-04-02 09:55:00
6:15 AM,46.4,46.4,100,30.06,10.0,Calm,Calm,-,N/A,,Clear,0,2013-04-02 10:15:00
6:35 AM,46.4,46.4,100,30.07,10.0,Calm,Calm,-,N/A,,Clear,0,2013-04-02 10:35:00
6:55 AM,46.4,46.4,100,30.08,10.0,Calm,Calm,-,N/A,,Clear,0,2013-04-02 10:55:00
7:15 AM,46.4,46.4,100,30.09,10.0,Calm,Calm,-,N/A,,Clear,0,2013-04-02 11:15:00
7:35 AM,46.4,46.4,100,30.10,10.0,Calm,Calm,-,N/A,,Clear,0,2013-04-02 11:35:00
7:55 AM,46.4,46.4,100,30.11,7.0,Calm,Calm,-,N/A,,Clear,0,2013-04-02 11:55:00
8:15 AM,50.0,50.0,100,30.12,10.0,Calm,Calm,-,N/A,,Clear,0,2013-04-02 12:15:00
8:35 AM,51.8,51.8,100,30.13,10.0,Calm,Calm,-,N/A,,Clear,0,2013-04-02 12:35:00
9:15 AM,60.8,46.4,59,30.14,10.0,North,3.5,-,N/A,,Clear,360,2013-04-02 13:15:00
9:35 AM,62.6,42.8,48,30.14,10.0,Calm,Calm,-,N/A,,Clear,0,2013-04-02 13:35:00
10:15 AM,66.2,42.8,43,30.14,10.0,NNE,3.5,-,N/A,,Clear,20,2013-04-02 14:15:00
10:35 AM,68.0,42.8,40,30.15,10.0,NNE,6.9,-,N/A,,Clear,30,2013-04-02 14:35:00
11:15 AM,69.8,41.0,35,30.15,10.0,North,8.1,-,N/A,,Clear,10,2013-04-02 15:15:00
11:35 AM,69.8,41.0,35,30.14,10.0,NE,8.1,-,N/A,,Clear,40,2013-04-02 15:35:00
11:55 AM,71.6,41.0,33,30.14,10.0,NNW,6.9,-,N/A,,Clear,330,2013-04-02 15:55:00
12:15 PM,71.6,41.0,33,30.14,10.0,North,4.6,-,N/A,,Clear,10,2013-04-02 16:15:00
12:35 PM,71.6,41.0,33,30.13,10.0,NNW,3.5,-,N/A,,Clear,330,2013-04-02 16:35:00
1:15 PM,73.4,42.8,33,30.12,10.0,NNE,8.1,-,N/A,,Clear,20,2013-04-02 17:15:00
1:35 PM,73.4,42.8,33,30.11,10.0,NW,8.1,-,N/A,,Clear,310,2013-04-02 17:35:00
1:55 PM,73.4,42.8,33,30.10,10.0,West,8.1,-,N/A,,Clear,280,2013-04-02 17:55:00
2:15 PM,75.2,42.8,31,30.10,10.0,NNW,5.8,-,N/A,,Clear,330,2013-04-02 18:15:00
2:35 PM,77.0,42.8,29,30.09,10.0,Calm,Calm,-,N/A,,Clear,0,2013-04-02 18:35:00
2:55 PM,75.2,42.8,31,30.08,10.0,North,4.6,-,N/A,,Clear,350,2013-04-02 18:55:00
3:15 PM,77.0,42.8,29,30.07,10.0,NW,3.5,-,N/A,,Clear,320,2013-04-02 19:15:00
3:35 PM,77.0,42.8,29,30.07,10.0,NW,8.1,-,N/A,,Clear,310,2013-04-02 19:35:00
3:55 PM,77.0,42.8,29,30.06,10.0,NW,5.8,9.2,N/A,,Clear,310,2013-04-02 19:55:00
4:15 PM,77.0,42.8,29,30.05,10.0,Calm,Calm,-,N/A,,Clear,0,2013-04-02 20:15:00
4:35 PM,77.0,42.8,29,30.05,10.0,WSW,4.6,-,N/A,,Clear,240,2013-04-02 20:35:00
4:55 PM,78.8,42.8,28,30.05,10.0,West,6.9,-,N/A,,Clear,260,2013-04-02 20:55:00
5:15 PM,77.0,42.8,29,30.05,10.0,NW,8.1,-,N/A,,Clear,310,2013-04-02 21:15:00
5:35 PM,77.0,42.8,29,30.05,10.0,Calm,Calm,-,N/A,,Clear,0,2013-04-02 21:35:00
5:55 PM,77.0,42.8,29,30.05,10.0,WNW,9.2,-,N/A,,Clear,300,2013-04-02 21:55:00
6:15 PM,77.0,42.8,29,30.05,10.0,WNW,4.6,-,N/A,,Clear,290,2013-04-02 22:15:00
6:35 PM,77.0,44.6,32,30.05,10.0,WNW,8.1,-,N/A,,Clear,290,2013-04-02 22:35:00
6:55 PM,77.0,44.6,32,30.05,10.0,Calm,Calm,-,N/A,,Clear,0,2013-04-02 22:55:00
7:15 PM,75.2,44.6,34,30.05,10.0,Calm,Calm,-,N/A,,Clear,0,2013-04-02 23:15:00
7:35 PM,71.6,46.4,41,30.05,10.0,Calm,Calm,-,N/A,,Clear,0,2013-04-02 23:35:00
7:55 PM,68.0,50.0,52,30.05,10.0,Calm,Calm,-,N/A,,Clear,0,2013-04-02 23:55:00
8:15 PM,64.4,50.0,59,30.06,10.0,SSE,5.8,-,N/A,,Clear,150,2013-04-03 00:15:00
8:35 PM,68.0,51.8,56,30.07,10.0,Calm,Calm,-,N/A,,Clear,0,2013-04-03 00:35:00
8:55 PM,66.2,51.8,60,30.08,10.0,Calm,Calm,-,N/A,,Clear,0,2013-04-03 00:55:00
9:35 PM,62.6,51.8,68,30.09,10.0,Calm,Calm,-,N/A,,Clear,0,2013-04-03 01:35:00
9:55 PM,62.6,53.6,72,30.10,10.0,Calm,Calm,-,N/A,,Clear,0,2013-04-03 01:55:00
10:15 PM,60.8,51.8,72,30.10,10.0,Calm,Calm,-,N/A,,Clear,0,2013-04-03 02:15:00
10:35 PM,60.8,53.6,77,30.10,10.0,Calm,Calm,-,N/A,,Clear,0,2013-04-03 02:35:00
10:55 PM,59.0,53.6,82,30.11,10.0,Calm,Calm,-,N/A,,Clear,0,2013-04-03 02:55:00
11:15 PM,57.2,51.8,82,30.11,10.0,Calm,Calm,-,N/A,,Clear,0,2013-04-03 03:15:00
11:35 PM,55.4,53.6,94,30.11,10.0,Calm,Calm,-,N/A,,Clear,0,2013-04-03 03:35:00
11:55 PM,55.4,51.8,88,30.12,10.0,Calm,Calm,-,N/A,,Clear,0,2013-04-03 03:55:00